{"data":{"norad_id":63861,"epoch":"2026-05-25T00:23:12.266016Z","epoch_age_seconds":84237,"freshness":"FRESH","line1":"1 63861U 25093AB  26145.01611419  .00015050  00000+0  55517-3 0  9990","line2":"2 63861  43.0032   6.9748 0001415 265.9370  94.1320 15.27588586 59429","mean_motion":15.27588586,"eccentricity":0.0001415,"inclination_deg":43.0032,"raan_deg":6.9748,"arg_perigee_deg":265.937,"mean_anomaly_deg":94.132,"bstar":0.00055517,"rev_number":5942,"period_min":94.266218875767,"perigee_km":482.05253239257,"apogee_km":483.99424078198,"semimajor_km":6861.1603865873,"source":"CELESTRAK","updated_at":"2026-05-25T13:38:20.167003Z"}}